FW8055 Weather Reports


time (UTC)temp
C
wind
direction
speed
KPH
gust
KPH
rain 1hr
cm
rain 24hr
cm
rain mn
cm
humidity
%
barometer
mb
20260906003058 20 0 0.0 4.8 0.00 0.33 0.00 56 1015.2
20260906001555 21 0 0.0 4.8 0.00 0.33 0.00 53 1015.2
20260906000059 20 352 0.0 6.4 0.00 0.33 0.00 54 1015.1
20260905234601 20 59 1.6 6.4 0.00 0.46 0.00 54 1015.1
20260905233057 21 0 0.0 6.4 0.00 0.46 0.00 53 1015.2
20260905231556 21 351 0.0 8.0 0.00 0.46 0.00 54 1015.4
20260905230108 20 0 1.6 6.4 0.00 0.46 0.00 55 1015.6
20260905224605 20 247 0.0 3.2 0.00 0.71 0.00 58 1015.7
20260905223055 20 0 0.0 6.4 0.00 0.71 0.00 57 1015.9
20260905221603 20 0 0.0 3.2 0.00 0.71 0.00 58 1016.0
20260905220109 20 0 1.6 9.7 0.00 0.71 0.00 57 1015.9
20260905214557 20 0 1.6 8.0 0.00 0.86 0.00 55 1016.0
20260905213052 20 0 0.0 4.8 0.00 0.86 0.00 58 1016.2
20260905211556 20 29 0.0 6.4 0.00 0.86 0.00 59 1016.4
20260905210052 20 0 0.0 6.4 0.00 0.86 0.00 59 1016.5
20260905204550 19 0 0.0 4.8 0.00 0.86 0.00 63 1016.7
20260905203100 18 0 1.6 4.8 0.00 0.86 0.00 66 1016.6
20260905201556 18 27 0.0 3.2 0.00 0.86 0.00 68 1016.6
20260905200057 18 0 0.0 4.8 0.00 0.86 0.00 67 1016.7
20260905194549 18 0 1.6 4.8 0.00 0.86 0.00 70 1017.1
20260905193056 17 236 1.6 4.8 0.00 0.86 0.00 75 1017.3
20260905191552 17 0 0.0 0.0 0.00 0.86 0.00 74 1017.3
20260905190101 17 0 0.0 4.8 0.00 0.86 0.00 74 1017.3
20260905184600 17 17 0.0 3.2 0.00 0.86 0.00 75 1017.4
20260905183112 16 352 0.0 4.8 0.00 0.86 0.00 77 1017.5
20260905181603 16 0 0.0 4.8 0.00 0.86 0.00 82 1017.5
20260905180052 16 0 0.0 3.2 0.00 0.86 0.00 85 1017.5
20260905174556 15 0 0.0 0.0 0.00 0.89 0.00 89 1017.6
20260905173103 14 0 0.0 3.2 0.00 0.89 0.00 91 1017.6
20260905171556 13 341 0.0 1.6 0.00 0.89 0.00 92 1017.6
20260905164605 12 0 0.0 4.8 0.00 0.97 0.00 95 1017.5
20260905163055 12 0 0.0 3.2 0.00 0.97 0.00 96 1017.4
20260905161602 12 0 0.0 1.6 0.00 0.97 0.00 96 1017.4
20260905160116 12 0 0.0 1.6 0.00 0.97 0.00 96 1017.5
20260905154554 11 0 0.0 3.2 0.00 0.97 0.00 96 1017.7
20260905153111 11 0 0.0 3.2 0.00 0.97 0.00 96 1017.8
20260905151604 11 0 0.0 0.0 0.00 0.97 0.00 96 1017.9
20260905150058 11 0 0.0 0.0 0.00 0.97 0.00 96 1017.9
20260905144602 10 0 0.0 3.2 0.00 0.97 0.00 96 1017.8
20260905143052 10 0 0.0 3.2 0.00 0.97 0.00 95 1017.7
20260905141603 10 0 0.0 0.0 0.00 0.97 0.00 96 1017.6
20260905140107 11 0 0.0 1.6 0.00 0.97 0.00 96 1017.5
20260905134553 11 0 0.0 0.0 0.00 0.97 0.00 96 1017.4
20260905133051 11 0 0.0 0.0 0.00 0.97 0.00 96 1017.5
20260905131609 11 0 0.0 0.0 0.00 0.97 0.00 95 1017.4
20260905130058 11 0 0.0 0.0 0.00 0.97 0.00 95 1017.3
20260905124553 11 0 0.0 0.0 0.00 0.97 0.00 95 1017.1
20260905123104 11 0 0.0 0.0 0.00 0.97 0.00 96 1017.1
20260905121555 11 0 0.0 0.0 0.00 0.97 0.00 96 1017.0
20260905114558 11 0 0.0 0.0 0.00 0.97 0.00 96 1017.1
20260905113053 11 0 0.0 4.8 0.00 0.97 0.00 96 1017.0
20260905111608 11 0 0.0 4.8 0.00 0.97 0.00 96 1016.8
20260905110056 11 0 0.0 4.8 0.00 0.97 0.00 96 1016.9
20260905104559 11 0 0.0 3.2 0.00 0.99 0.00 96 1016.9
20260905103054 11 0 0.0 3.2 0.00 0.99 0.00 96 1017.0
20260905101553 12 0 0.0 1.6 0.00 0.99 0.00 96 1017.1
20260905100101 12 0 0.0 3.2 0.00 0.99 0.00 96 1017.1
20260905094554 12 0 0.0 3.2 0.00 1.02 0.00 96 1017.0
20260905093055 12 0 0.0 0.0 0.00 1.02 0.00 96 1017.1
20260905091609 11 0 0.0 0.0 0.00 1.02 0.00 96 1017.1
20260905090049 12 0 0.0 0.0 0.00 1.02 0.00 96 1016.9
20260905084610 12 0 0.0 0.0 0.00 1.09 0.00 96 1017.0
20260905083054 11 0 0.0 0.0 0.00 1.09 0.00 95 1016.9
20260905081603 11 0 0.0 0.0 0.00 1.09 0.00 95 1016.7
20260905080054 11 0 0.0 0.0 0.00 1.09 0.00 95 1016.7
20260905074557 12 0 0.0 0.0 0.00 1.22 0.00 95 1016.7
20260905073106 12 0 0.0 0.0 0.00 1.22 0.00 95 1016.7
20260905071603 12 0 0.0 0.0 0.00 1.22 0.00 95 1016.4
20260905070055 12 0 0.0 0.0 0.00 1.22 0.00 95 1016.4
20260905064553 12 0 0.0 0.0 0.00 1.22 1.22 95 1016.4
20260905063100 13 0 0.0 0.0 0.00 1.22 1.22 95 1016.4
20260905061611 13 0 0.0 0.0 0.00 1.22 1.22 95 1016.4
20260905060104 13 0 0.0 0.0 0.00 1.22 1.22 95 1016.5
20260905054551 13 0 0.0 0.0 0.00 1.24 1.22 95 1016.4
20260905053140 13 0 0.0 0.0 0.00 1.24 1.22 95 1016.3
20260905051557 13 0 0.0 3.2 0.00 1.24 1.22 95 1016.4
20260905050053 13 0 0.0 0.0 0.00 1.24 1.22 95 1016.4
20260905044554 13 0 0.0 0.0 0.00 1.27 1.22 95 1016.3
20260905043058 13 0 0.0 0.0 0.03 1.27 1.22 95 1016.3
20260905041555 13 0 0.0 0.0 0.05 1.27 1.22 95 1016.1
20260905040106 13 0 0.0 0.0 0.10 1.27 1.22 95 1016.0
20260905034558 13 0 0.0 0.0 0.15 1.27 1.22 94 1016.0
20260905033106 13 0 0.0 0.0 0.13 1.24 1.19 95 1015.8
20260905031604 13 0 0.0 0.0 0.10 1.22 1.17 94 1015.7
20260905030101 13 0 0.0 0.0 0.05 1.17 1.12 94 1015.6
20260905024607 13 0 0.0 4.8 0.00 1.12 1.07 94 1015.5
20260905023105 14 0 0.0 0.0 0.00 1.12 1.07 94 1015.2
20260905021553 14 0 0.0 1.6 0.00 1.12 1.07 95 1015.3
20260905020108 14 0 0.0 0.0 0.03 1.12 1.07 95 1015.2
20260905014559 14 0 0.0 0.0 0.05 1.14 1.07 95 1015.1
20260905013050 14 0 0.0 0.0 0.08 1.14 1.07 95 1015.0
20260905011605 14 0 0.0 0.0 0.10 1.14 1.07 95 1014.9
20260905010055 13 0 0.0 1.6 0.15 1.12 1.04 95 1014.7
20260905004555 13 0 0.0 0.0 0.18 1.12 1.02 94 1014.7